Regional Weather Roundup
Issued by NWS

Home | Current Version | Previous Version | Text Only | Print | Product List | Glossary On
Versions: 1 2 3 4 5 6 7 8 9 10 11 12 13 14 15 16 17 18 19 20 21 22 23 24 25 26 27 28 29 30 31 32 33 34 35 36 37 38 39 40 41 42 43 44 45 46 47 48 49 50
000
ASUS43 KDMX 160801
RWRIA

WEATHER ROUNDUP FOR IOWA
NATIONAL WEATHER SERVICE DES MOINES IA
200 AM CST SAT DEC 16 2017

NOTE: "FAIR" INDICATES FEW OR NO CLOUDS BELOW 12,000 FEET WITH NO
SIGNIFICANT WEATHER AND/OR OBSTRUCTIONS TO VISIBILITY.

* - THESE STATIONS ARE NOT NWS STATIONS...THUS NOT UNDER NWS
QUALITY CONTROL.  THEY ALSO DO NOT REPORT WEATHER SUCH
AS PRECIPITATION OR FOG.

IAZ001>003-012>014-020>022-031>034-043>046-160900-
   NORTHWEST IOWA

CITY           SKY/WX    TMP DP  RH WIND       PRES   REMARKS
CARROLL *      CLOUDY    37  23  56 SW20      29.67S WCI  27
DENISON *      CLOUDY    36  23  60 SW7       29.70S WCI  30
LE MARS *      CLEAR     30  25  80 S7        29.66R WCI  23
ORANGE CITY *  CLOUDY    30  28  93 SW6       29.65R WCI  24
SHELDON *      PTCLDY    30  27  86 S5        29.63R WCI  25
SIOUX CITY     CLOUDY    26  21  81 E6        29.67S WCI  19
SPENCER        CLOUDY    32  25  75 SW10      29.63S WCI  24
STORM LAKE *   CLOUDY    32  23  69 SW8       29.65S WCI  25
$$

IAZ055>058-069>071-079>083-090>094-160900-
   SOUTHWEST IOWA

CITY           SKY/WX    TMP DP  RH WIND       PRES   REMARKS
ATLANTIC *     CLEAR     34  25  69 S12       29.73S WCI  25
AUDUBON *      CLEAR     36  25  64 SW12      29.71S WCI  27
CLARINDA *       N/A     34  25  69 S3          N/A
COUNCIL BLFS * PTCLDY    41  23  48 SW14G20   29.72S
CRESTON *      CLEAR     37  25  60 SW16      29.76S WCI  28
HARLAN  *      PTCLDY    32  23  69 S9        29.74S WCI  24
LAMONI         CLEAR     35  24  64 S13       29.79S WCI  26
RED OAK *      PTCLDY    36  25  64 S10       29.76S WCI  28
SHENANDOAH *   CLEAR     37  25  60 SW14      29.77F WCI  29
$$

IAZ047>049-059>061-072>074-084-160900-
   CENTRAL IOWA

CITY           SKY/WX    TMP DP  RH WIND       PRES   REMARKS
AMES           CLOUDY    33  25  72 SW10      29.70F WCI  25
ANKENY *       CLEAR     36  25  64 SW10      29.74S WCI  28
BOONE *        CLOUDY    36  23  60 SW9G15    29.69S WCI  29
CHARITON *     CLEAR     34  25  69 SW14G20   29.77S WCI  24
DES MOINES     CLEAR     36  24  62 S10       29.73F WCI  28
GRINNELL*      CLOUDY    34  24  68 SW12      29.75F WCI  25
KNOXVILLE *    CLEAR     37  23  56 SW10G17   29.75S WCI  30
MARSHALLTOWN   CLOUDY    34  24  67 SW13      29.71F WCI  25
NEWTON *       CLOUDY    36  23  60 SW13      29.74F WCI  27
PELLA *        CLEAR     38  24  59 SW13      29.77S WCI  30
$$

IAZ004>006-015-016-023>025-035-036-160900-
   NORTH CENTRAL IOWA

CITY           SKY/WX    TMP DP  RH WIND       PRES   REMARKS
ALGONA *       CLOUDY    32  25  74 SW10      29.65R WCI  24
CLARION *      CLOUDY    28  23  80 S9        29.67S WCI  20
ESTHERVILLE    CLOUDY    31  26  82 SW9       29.62S WCI  23
FORT DODGE *   CLOUDY    32  24  72 S7        29.68R WCI  26
MASON CITY     CLOUDY    31  23  72 S10       29.66F WCI  22
FOREST CITY *    N/A     32  27  80 SW6       29.65S WCI  26
WEBSTER CITY * CLOUDY    32  23  69 SW13      29.66S WCI  22
IOWA FALLS *     N/A     33  25  71 S10       29.69S WCI  25
$$

IAZ007>011-017>019-026>030-037>042-050>054-066-160900-
   NORTHEAST IOWA

CITY           SKY/WX    TMP DP  RH WIND       PRES   REMARKS
CEDAR RAPIDS   CLOUDY    32  23  69 S13       29.75S WCI  22
CHARLES CITY * CLOUDY    32  25  74 S12       29.68S WCI  23
CLINTON *      CLOUDY    34  23  64 SW8       29.82R WCI  27
DECORAH *      CLOUDY    34  25  69 S10G16    29.67F WCI  26
DUBUQUE        CLOUDY    33  23  66 S13       29.76S WCI  24
MONTICELLO *   CLOUDY    32  21  64 SE7       29.77S WCI  26
OELWEIN *      CLOUDY    28  25  86 S9        29.71F WCI  20
WATERLOO       CLOUDY    31  22  69 S9        29.71F WCI  23
$$

IAZ064-065-067-068-078-160900-
   EAST CENTRAL IOWA

CITY           SKY/WX    TMP DP  RH WIND       PRES   REMARKS
DAVENPORT      CLOUDY    34  22  61 S12       29.83S WCI  25
IOWA CITY      CLOUDY    36  23  59 S9        29.80S WCI  29
MT. PLEASANT * CLEAR     34  23  64 S15       29.83R WCI  24
MUSCATINE *    CLOUDY    36  23  60 S8G14     29.83R WCI  29
QUAD CITIES    CLOUDY    34  23  64 S8        29.82S WCI  27
$$

IAZ062-063-075>077-085>089-095>099-160900-
   SOUTHEAST IOWA

CITY           SKY/WX    TMP DP  RH WIND       PRES   REMARKS
BURLINGTON     CLEAR     35  25  66 SW16      29.84F WCI  25
FAIRFIELD *    CLEAR     36  23  60 SW15G21   29.80S WCI  26
FORT MADISON * CLEAR     36  25  64 S14       29.85S WCI  27
KEOKUK *       CLEAR     34  25  69 SW14      29.85F WCI  24
OSKALOOSA *      N/A     34  24  68 SW12      29.79S WCI  25
OTTUMWA        CLEAR     39  24  55 SW14      29.79S WCI  31
WASHINGTON *   CLOUDY    34  25  69 SW14G21   29.81R WCI  24
$$

ABBREVIATIONS USED IN REMARKS
   TC - TEMPERATURES IN CELSIUS
  WCI - WIND CHILL INDEX
   HX - HEAT INDEX
  VSB - VISIBILITY
$$





USA.gov is the U.S. government's official web portal to all federal, state and local government web resources and services.